Easton, MD

10:55 AM EDT on September 27, 2016 (GMT -0400)
Easton / Newnam

Weather History for KESN - January, 2013

Change the Weather History Date:

Thursday, January 24, 2013

  Actual Average Record
Temperature  
Mean Temperature 21 °F -  
Max Temperature 26 °F 49 °F 69 °F (1967)
Min Temperature 16 °F 29 °F 6 °F (1963)
Degree Days  
Heating Degree Days 44    
Moisture  
Dew Point 11 °F    
Average Humidity 69    
Maximum Humidity 98    
Minimum Humidity 37    
Precipitation  
Precipitation 0.00 in - - ()
Sea Level Pressure  
Sea Level Pressure 30.31 in    
Wind  
Wind Speed 8 mph (NNE)    
Max Wind Speed 18 mph    
Max Gust Speed 26 mph    
Visibility 8 miles    
Events Snow    
Averages and records for this station are not official NWS values.
T = Trace of Precipitation, MM = Missing Value Source: NWS Daily Summary

Daily Weather History Graph

Daily Weather History Graph

Search for Another Location

Airport or City:

Trip Planner

Search our weather history database for the weather conditions in past years. The results will help you decide how hot, cold, wet, or windy it might be!

Date:

Astronomy

Jan. 24, 2013 Rise Set
Actual Time 7:16 AM EST 5:16 PM EST
Civil Twilight 6:47 AM EST 5:45 PM EST
Nautical Twilight 6:15 AM EST 6:17 PM EST
Astronomical Twilight 5:43 AM EST 6:49 PM EST
Moon 3:17 PM EST (1/24) 5:11 AM EST (1/24)
Length of Visible Light 10h 57m
Length of Day
10h 00m
Waxing Gibbous, 94% of the Moon is Illuminated
Jan 24
Waxing Gibbous
Jan 26
Full
Feb 3
Last Quarter
Feb 10
New
Feb 17
First Quarter

Hourly Weather History & Observations

Time (EST) Temp. Windchill Dew Point Humidity Pressure Visibility Wind Dir Wind Speed Gust Speed Precip Events Conditions
12:01 AM 21.9 °F 14.5 °F 6.4 °F 51% 30.21 in 10.0 mi East 5.8 mph - N/A   Clear
12:22 AM 21.7 °F 14.3 °F 6.8 °F 53% 30.21 in 10.0 mi SE 5.8 mph - N/A   Mostly Cloudy
12:43 AM 21.2 °F 11.7 °F 7.3 °F 55% 30.19 in 10.0 mi SE 8.1 mph - N/A   Overcast
1:05 AM 20.7 °F 11.0 °F 9.3 °F 62% 30.18 in 10.0 mi ESE 8.1 mph - N/A   Overcast
1:26 AM 20.7 °F 14.2 °F 9.3 °F 62% 30.18 in 10.0 mi East 4.6 mph - N/A   Mostly Cloudy
1:47 AM 20.1 °F 10.3 °F 11.8 °F 70% 30.17 in 10.0 mi ENE 8.1 mph - N/A   Overcast
2:09 AM 19.4 °F 10.4 °F 13.3 °F 77% 30.16 in 5.0 mi East 6.9 mph - N/A Snow Light Snow
2:30 AM 19.0 °F 9.0 °F 14.9 °F 84% 30.16 in 2.5 mi ENE 8.1 mph - N/A Snow Light Snow
2:51 AM 18.5 °F 7.5 °F 16.5 °F 92% 30.15 in 1.8 mi ENE 9.2 mph - N/A Snow Light Snow
3:13 AM 18.5 °F 10.4 °F 17.4 °F 96% 30.14 in 2.0 mi ENE 5.8 mph - N/A Snow Light Snow
3:34 AM 18.1 °F 8.9 °F 17.2 °F 96% 30.14 in 2.5 mi ENE 6.9 mph - N/A Snow Light Snow
3:55 AM 18.1 °F 7.9 °F 17.4 °F 97% 30.13 in 2.5 mi ENE 8.1 mph - N/A Snow Light Snow
4:17 AM 18.1 °F 7.9 °F 17.4 °F 97% 30.14 in 3.0 mi ENE 8.1 mph - N/A Snow Light Snow
4:38 AM 17.6 °F 7.3 °F 17.1 °F 98% 30.14 in 3.0 mi ENE 8.1 mph - N/A Snow Light Snow
4:59 AM 17.6 °F 5.7 °F 16.7 °F 96% 30.15 in 5.0 mi ENE 10.4 mph - N/A Snow Light Snow
5:21 AM 17.4 °F 6.2 °F 16.3 °F 96% 30.16 in 7.0 mi NE 9.2 mph - N/A Snow Light Snow
5:42 AM 17.2 °F 6.8 °F 15.8 °F 94% 30.17 in 7.0 mi NE 8.1 mph - N/A   Overcast
5:53 AM 17.6 °F 3.7 °F 15.8 °F 93% 30.18 in 5.0 mi NNE 13.8 mph - N/A Snow Light Snow
6:03 AM 17.2 °F 3.9 °F 15.6 °F 93% 30.18 in 5.0 mi NE 12.7 mph 17.3 mph N/A   Overcast
6:25 AM 16.9 °F 4.8 °F 15.1 °F 93% 30.20 in 4.0 mi NE 10.4 mph - N/A Snow Light Snow
6:40 AM 16.7 °F 5.3 °F 14.5 °F 91% 30.20 in 4.0 mi NE 9.2 mph - N/A Snow Light Snow
6:53 AM 17.6 °F 8.2 °F 12.2 °F 79% 30.22 in 7.0 mi NNE 6.9 mph - N/A   Overcast
7:53 AM 17.6 °F 8.2 °F 10.4 °F 73% 30.25 in 10.0 mi NNE 6.9 mph - N/A   Scattered Clouds
8:53 AM 19.4 °F 9.5 °F 10.4 °F 68% 30.29 in 10.0 mi NNE 8.1 mph - N/A   Partly Cloudy
9:53 AM 21.2 °F 10.1 °F 12.2 °F 68% 30.33 in 10.0 mi North 10.4 mph - N/A   Scattered Clouds
10:48 AM 23.0 °F 13.9 °F 12.2 °F 63% 30.34 in 10.0 mi NNW 8.1 mph 16.1 mph N/A   Scattered Clouds
11:58 AM 24.8 °F 12.9 °F 12.2 °F 59% 30.37 in 10.0 mi NNW 13.8 mph 21.9 mph N/A   Scattered Clouds
12:47 PM 24.8 °F 12.4 °F 10.4 °F 54% 30.37 in 10.0 mi NNW 15.0 mph 24.2 mph N/A   Mostly Cloudy
1:55 PM 24.8 °F 11.1 °F 8.6 °F 50% 30.38 in 10.0 mi NNW 18.4 mph 26.5 mph N/A   Mostly Cloudy
3:00 PM 26.6 °F 15.2 °F 6.8 °F 43% 30.40 in 10.0 mi North 13.8 mph 19.6 mph N/A   Mostly Cloudy
3:55 PM 26.6 °F 13.8 °F 3.2 °F 37% 30.42 in 10.0 mi NNW 17.3 mph 20.7 mph N/A   Scattered Clouds
5:00 PM 24.8 °F 15.3 °F 3.2 °F 40% 30.46 in 10.0 mi NNW 9.2 mph - N/A   Scattered Clouds
5:51 PM 24.8 °F 16.9 °F 3.2 °F 40% 30.48 in 10.0 mi NNW 6.9 mph - N/A   Scattered Clouds
6:54 PM 24.8 °F 15.3 °F 6.8 °F 46% 30.50 in 10.0 mi NNW 9.2 mph 18.4 mph N/A   Clear
7:54 PM 24.8 °F 16.1 °F 6.8 °F 46% 30.53 in 10.0 mi NNW 8.1 mph - N/A   Clear
8:59 PM 23.0 °F 13.1 °F 6.8 °F 50% 30.53 in 10.0 mi NNW 9.2 mph - N/A   Clear
9:48 PM 22.3 °F 13.0 °F 8.4 °F 55% 30.52 in 10.0 mi NNW 8.1 mph - N/A   Clear
10:09 PM 21.2 °F 14.9 °F 8.6 °F 58% 30.53 in 10.0 mi NNW 4.6 mph - N/A   Clear
10:30 PM 20.3 °F 13.8 °F 9.3 °F 63% 30.53 in 10.0 mi NNW 4.6 mph - N/A   Clear
10:52 PM 21.2 °F 13.6 °F 8.8 °F 59% 30.54 in 10.0 mi North 5.8 mph - N/A   Clear
11:13 PM 21.7 °F 15.5 °F 8.4 °F 57% 30.54 in 10.0 mi North 4.6 mph - N/A   Clear
11:34 PM 21.0 °F 16.2 °F 8.2 °F 58% 30.54 in 10.0 mi NW 3.5 mph - N/A   Clear
11:56 PM 20.8 °F 13.2 °F 8.4 °F 59% 30.53 in 10.0 mi NNW 5.8 mph - N/A   Clear